Махтумкули

Туркменистан     38°26′05″N   56°17′21″E
темп.,
°C
ветер,
м/с
пор.,
м/с
влажн.,
%
обл.,
%
осадки,
мм/ч
давл.,
гПа
погр.,
м
16 июня, ср
ср1623:00+29всв56140 0.0 100787
02:00+25зюз34360 0.0 100852
05:00+22ю21700 0.0 100911
08:00+24з11640 0.0 1011292
11:00+31ссз34280 0.0 10101184
14:00+35св8780 0.0 10092851
17:00+36св6750 0.0 10082834
20:00+33св5670 0.0 1008104
17 июня, чт
чт1723:00+29всв58110 0.0 101087
02:00+27в56140 0.0 100951
05:00+25в55150 0.0 100838
08:00+29в46120 0.0 1009262
11:00+35всв6680 0.0 10072194
14:00+38всв6560 0.0 10052653
17:00+39всв7660 0.0 10032778
20:00+35всв71080 0.0 1004246
18 июня, пт
пт1823:00+29в68110 0.0 100679
02:00+28в55120 0.0 100542
05:00+26в44130 0.0 100619
08:00+30ююв22110 0.0 1008150
11:00+34зюз43100 0.0 10091244
14:00+38з64110 0.0 10082691
17:00+38зюз55100 0.0 10072971
20:00+35зюз56165 0.0 1008315
19 июня, сб
сб1923:00+28юз46320 0.0 1012121
02:00+25юз33430 0.0 101356
05:00+23ююз22550 0.0 101414
08:00+25юз33540 0.0 1015421
11:00+30зюз32350 0.0 1015923
14:00+36сз45180 0.0 10132451
17:00+38св77110 0.0 10113232
20:00+36с44110 0.0 101171
20 июня, вс
вс2023:00+30всв812190 0.0 1013260
02:00+27всв69220 0.0 1013148
05:00+24всв56250 0.0 101489
08:00+27всв56180 0.0 1014327
11:00+32св55110 0.0 1013950
14:00+35св8860 0.0 10121268
17:00+34св9960 0.0 10111544
20:00+31св81070 0.0 1012482